Location: Unspecified
(35.5300°N, 0.0000°E)
Time: 13:19:19
(UTC+00:00)

ISS - Visible Passes

Search period start: 24 May 2019 00:00
Search period end: 03 June 2019 00:00
Orbit: 408 x 418 km, 51.6° (Epoch: 25 May)

Date Brightness Start Highest point End Pass type
(mag) Time Alt. Az. Time Alt. Az. Time Alt. Az.
27 May -0.2 23:01:44 10° NNW 23:02:00 11° NNW 23:02:00 11° NNW visible
28 May -0.8 22:12:45 10° N 22:14:05 14° NNE 22:14:05 14° NNE visible
29 May -0.8 21:24:24 10° NNE 21:24:54 10° NNE 21:25:25 10° NNE visible
29 May -0.3 22:58:53 10° NW 22:58:59 11° NW 22:58:59 11° NW visible
30 May -1.2 22:09:33 10° NNW 22:11:06 21° N 22:11:06 21° N visible
31 May -1.6 21:20:22 10° NNW 21:22:52 19° NNE 21:23:14 19° NE visible
01 Jun -1.1 20:31:25 10° N 20:33:04 13° NNE 20:34:44 10° NE visible
01 Jun -1.4 22:06:48 10° NW 22:08:13 23° NW 22:08:13 23° NW visible
02 Jun -3.0 21:17:20 10° NW 21:20:25 44° NNE 21:20:25 44° NNE visible
